Regional Weather Roundup
Issued by NWS

Home | Current Version | Previous Version | Graphics & Text | Print | Product List | Glossary Off
Versions: 1 2 3 4 5 6 7 8 9 10 11 12 13 14 15 16 17 18 19 20 21 22 23 24 25 26 27 28 29 30 31 32 33 34 35 36 37 38 39 40 41 42 43 44 45 46 47 48 49 50

582
ASUS43 KMPX 190101
RWRMN
WEATHER ROUNDUP FOR MINNESOTA
NATIONAL WEATHER SERVICE TWIN CITIES/CHANHASSEN MN
700 PM CST WED JAN 18 2017


NOTE: "FAIR" INDICATES FEW OR NO CLOUDS BELOW 12,000 FEET WITH NO
SIGNIFICANT WEATHER AND/OR OBSTRUCTIONS TO VISIBILITY. N/A MEANS
CURRENT SKY AND/OR WEATHER CONDITIONS ARE NOT AVAILABLE.

MNZ060>063-068>070-190200-
   Twin Cities Metro

CITY           SKY/WX    TMP DP  RH WIND       PRES   REMARKS
TWIN CITIES    CLEAR     34  30  85 SE6       29.86S WCI  29
ST PAUL        CLEAR     34  32  92 SE7       29.88S WCI  28
CRYSTAL        CLEAR     34  29  82 S5        29.84S WCI  30
BLAINE         CLEAR     36  32  87 MISG      29.85S
LAKEVILLE      CLOUDY    34  34 100 S7        29.86S WCI  28
EDEN PRAIRIE   CLEAR     36  31  82 S9        29.85S HAZE
SOUTH ST PAUL  CLOUDY    34  32  92 CALM      29.87S
LAKE ELMO      FAIR      32  32 100 S8        29.87F WCI  25
$$
MNZ001>005-007-008-013>017-022>024-027-028-190200-
   Northwest Minnesota

CITY           SKY/WX    TMP DP  RH WIND       PRES   REMARKS
BEMIDJI        CLOUDY    36  25  65 S6        29.73S
HALLOCK        CLOUDY    25  21  86 S17       29.66S WCI  11
ROSEAU         CLOUDY    27  21  80 S7        29.68S WCI  19
WARROAD        CLOUDY    25  21  86 SE3       29.69S
THIEF RVR FALL CLOUDY    27  22  81 S13       29.70F WCI  16
CROOKSTON      CLOUDY    28  25  86 S13       29.70F WCI  18
FOSSTON        CLOUDY    27  21  80 S6        29.72F WCI  20
DETROIT LAKES  CLOUDY    32  25  74 S8        29.74F WCI  25
MOORHEAD       CLOUDY    28  25  86 S8        29.73F WCI  20
PARK RAPIDS    CLOUDY    33  22  63 S8        29.74S WCI  26
MAHNOMEN       FAIR      29  23  77 S9        29.72S WCI  21
$$
MNZ006-009>011-018-025>026-190200-
   North Central Minnesota

CITY           SKY/WX    TMP DP  RH WIND       PRES   REMARKS
BAUDETTE       CLOUDY    27  20  75 SE5       29.69S WCI  22
FLAG ISLAND    CLOUDY    21  18  86 S10       29.68S WCI  10
INTL FALLS     CLOUDY    27  22  81 SE5       29.73R WCI  22
WASKISH        CLOUDY    28  27  93 SE3       29.72S
BIG FORK       CLOUDY    34  25  69 S3        29.74S
LONGVILLE      CLOUDY    34  25  69 S6        29.76S WCI  29
GRAND RAPIDS   CLOUDY    34  24  67 S10       29.78S WCI  26
CRANE LAKE     CLOUDY    23  21  93 CALM      29.77S
ORR            CLOUDY    32  23  69 CALM      29.73S
COOK           CLOUDY    28  25  86 CALM      29.76S
WALKER         FAIR      37  24  59 S7        29.74S
$$
MNZ012-019>021-037-190200-
   Northeast Minnesota

CITY           SKY/WX    TMP DP  RH WIND       PRES   REMARKS
DULUTH         CLOUDY    35  26  69 SW7       29.79S WCI  29
ELY            CLOUDY    28  25  86 CALM      29.76R
HIBBING        CLOUDY    33  24  69 S5        29.77S WCI  29
EVELETH        CLOUDY    28  24  85 CALM      29.79S
DULUTH HARBOR  CLOUDY    36  27  69 CALM      29.83R
TWO HARBORS    CLOUDY    36  28  75 W7        29.78S
SILVER BAY     CLOUDY    30  27  86 CALM      29.77F
GRAND MARAIS     N/A     30  27  88 CALM      29.80R
G MARAIS ARPRT CLOUDY    27  23  86 CALM      29.77S
$$
MNZ029>031-032-039>041-046>048-054>057-064-190200-
   West Central Minnesota

CITY           SKY/WX    TMP DP  RH WIND       PRES   REMARKS
FERGUS FALLS   CLOUDY    32  27  80 SE8       29.79S WCI  25
WHEATON        CLOUDY    36  34  93 SE12      29.76S
MORRIS         CLOUDY    34  28  80 SE13      29.75S WCI  25
ALEXANDRIA     CLOUDY    30  25  81 SE8       29.77S WCI  22
ELBOW LAKE     FAIR      32  28  84 SE8       29.75S WCI  25
WADENA         CLOUDY    28  23  80 SE5       29.75F WCI  23
GLENWOOD       CLOUDY    30  27  86 SE9       29.78S WCI  22
APPLETON       CLOUDY    34  28  80 SE5       29.77S WCI  30
ORTONVILLE     CLEAR     30  25  80 CALM      29.75S
MADISON        CLOUDY    34  28  80 S6        29.76S WCI  29
WILLMAR        FAIR      30  28  93 CALM      29.81S
$$
MNZ033>034-036-042>043-049>051-058-059-190200-
   Central Minnesota

CITY           SKY/WX    TMP DP  RH WIND       PRES   REMARKS
ST CLOUD       CLOUDY    31  29  92 S10       29.82S WCI  22
SAUK CENTRE    FAIR      29  27  92 SE6       29.79S WCI  23
PAYNESVILLE    CLOUDY    33  33 100 S10       29.80F WCI  25
AITKIN         CLOUDY    30  21  69 S3        29.78S
PINE RIVER     CLOUDY    30  25  80 SE6       29.80F WCI  24
BRAINERD       CLOUDY    31  26  82 S5        29.78F WCI  26
STAPLES        CLOUDY    28  25  86 CALM      29.77S
LONG PRAIRIE   FAIR      28  27  93 SE6       29.78F WCI  22
LITTLE FALLS   CLOUDY    32  27  80 S7        29.80S WCI  26
LITCHFIELD     CLOUDY    34  32  93 CALM      29.82S
BUFFALO        CLOUDY    34  31  88 SE3       29.84F
MAPLE LAKE     CLOUDY    34  32  93 S3        29.84S
HUTCHINSON     CLOUDY    32  32  99 SE5       29.84S WCI  28
$$
MNZ037-044-045-052-053-190200-
   East Central Minnesota

CITY           SKY/WX    TMP DP  RH WIND       PRES   REMARKS
PRINCETON      CLOUDY    34  28  80 S6        29.83S WCI  29
MORA           CLOUDY    32  27  80 S6        29.84S WCI  26
CAMBRIDGE      CLOUDY    37  27  65 S7        29.82S
RUSH CITY      CLOUDY    34  28  80 S5        29.84S WCI  30
MOOSE LAKE     CLOUDY    32  27  80 S3        29.80S
HINCKLEY       FAIR      30  28  93 CALM      29.83R
CLOQUET        CLOUDY    34  25  69 S5        29.80S WCI  30
MCGREGOR       CLOUDY    32  27  80 CALM      29.80S
$$
MNZ071>073-080-081-089-090-097-098-190200-
   Southwest Minnesota

CITY           SKY/WX    TMP DP  RH WIND       PRES   REMARKS
MONTEVIDEO     CLOUDY    34  30  86 S5        29.80R WCI  30
GRANITE FALLS  CLOUDY    35  32  90 SE9       29.80S WCI  27
CANBY          CLOUDY    41  34  76 S7        29.76S
MARSHALL       CLOUDY    38  35  89 SW16      29.76F
REDWOOD FALLS  CLOUDY    34  30  85 S12       29.80F WCI  25
OLIVIA         CLOUDY    34  32  93 SE7       29.80S WCI  28
PIPESTONE      CLOUDY    37  36  93 S10       29.78S
WINDOM         CLEAR     39  36  87 S10       29.82S
WORTHINGTON    CLEAR     38  35  89 S16       29.81F
JACKSON        CLEAR     36  34  93 S13       29.84S
TRACY          CLEAR     40  37  91 S16G23    29.78S
SLAYTON        CLEAR     35  35  98 S10       29.80F WCI  27
$$
MNZ065>067-074>077-082>085-091>093-190200-
   South Central Minnesota

CITY           SKY/WX    TMP DP  RH WIND       PRES   REMARKS
MANKATO        CLEAR     36  34  92 S10       29.86S
NEW ULM        CLEAR     36  34  93 S9        29.83S
ST JAMES       CLEAR     36  36 100 S12       29.85F
FAIRMONT       CLEAR     36  34  92 S13       29.86F
GLENCOE        CLEAR     35  35  97 CALM      29.83S
FARIBAULT      CLEAR     34  32  93 S8        29.88S WCI  27
OWATONNA       CLEAR     36  30  80 S14       29.88S
WASECA         CLEAR     36  34  93 S12       29.89S
ALBERT LEA     CLEAR     36  34  93 S7        29.90S
$$
MNZ078>079-086>088-094>096-190200-
   Southeast Minnesota

CITY           SKY/WX    TMP DP  RH WIND       PRES   REMARKS
ROCHESTER      CLOUDY    32  31  96 S16       29.90F WCI  21
RED WING       CLOUDY    36  30  80 S5        29.89S
STANTON        CLOUDY    35  32  88 S12       29.85F WCI  27
DODGE CENTER   CLEAR     32  30  93 S14       29.89S WCI  22
WINONA         CLOUDY    34  32  93 SW3       29.95S
AUSTIN         CLOUDY    34  30  86 S12       29.91F FOG     WCI  25
PRESTON        CLOUDY    31  30  96 S15G23    29.93S FOG     WCI  21
$$
ABBREVIATIONS USED IN REMARKS
   TC - TEMPERATURES IN CELSIUS
  WCI - WIND CHILL INDEX
   HX - HEAT INDEX
  VSB - VISIBILITY
$$




USA.gov is the U.S. government's official web portal to all federal, state and local government web resources and services.